User: anonymous   Login
Location: Cactus School
(34.5700°N, 118.0931°W)
Time: 09:49:40
(UTC-07:00)
Language:

Tiros 1 - Orbit

View from above orbital plane
View from above orbital plane
View from above satellite
View from above satellite

Ground track
Ground track

The orbit data is extracted from the following two-line orbital elements,

1    29U 60002B   24104.22742626  .00000925  00000-0  16208-3 0  9997
2    29  48.3781 196.3769 0022666  89.0919 271.2590 14.76166230424678
Epoch (UTC): 13 April 2024 05:27:29
Eccentricity: 0.0022666
inclination: 48.3781°
perigee height: 625 km
apogee height: 657 km
right ascension of ascending node: 196.3769°
argument of perigee: 89.0919°
revolutions per day: 14.76166230
mean anomaly at epoch: 271.2590°
orbit number at epoch: 42467

The dashed part of the orbit path shows where the satellite is in the earth's shadow,  

DLR